KC7FQB Weather Reports


time (UTC)temp
F
wind
direction
speed
knots
gust
knots
rain 1hr
in
rain 24hr
in
rain mn
in
humidity
%
barometer
mb
20220927025815 67 51 0.0 3.5 0.00 0.00 0.00 24 1032.5
20220927025638 95 110 1.7 3.5 0.00 0.00 0.00 33 1021.8
20220927025315 67 51 0.0 3.5 0.00 0.00 0.00 24 1032.5
20220927025026 95 127 0.9 2.6 0.00 0.00 0.00 34 1021.8
20220927024900 67 51 0.0 3.5 0.00 0.00 0.00 24 1032.5
20220927024519 95 146 0.9 2.6 0.00 0.00 0.00 34 1021.6
20220927024450 67 51 0.0 3.5 0.00 0.00 0.00 24 1032.5
20220927024030 95 116 0.9 3.5 0.00 0.00 0.00 34 1021.6
20220927024010 67 51 0.0 3.5 0.00 0.00 0.00 24 1032.5
20220927023525 67 51 0.0 3.5 0.00 0.00 0.00 24 1032.5
20220927023521 95 109 1.7 5.2 0.00 0.00 0.00 34 1021.5
20220927023053 94 108 1.7 5.2 0.00 0.00 0.00 34 1021.5
20220927023030 67 51 0.0 3.5 0.00 0.00 0.00 24 1032.5
20220927022610 67 51 0.0 3.5 0.00 0.00 0.00 24 1032.5
20220927022523 93 124 0.0 1.7 0.00 0.00 0.00 37 1021.3
20220927022155 67 51 0.0 3.5 0.00 0.00 0.00 24 1032.5
20220927021735 67 51 0.0 3.5 0.00 0.00 0.00 24 1032.5
20220927021526 92 0.0 0.0 0.00 0.00 0.00 36 1021.1
20220927021330 67 51 0.0 3.5 0.00 0.00 0.00 24 1032.5
20220927021018 93 0.0 0.0 0.00 0.00 0.00 35 1020.9
20220927020905 67 51 0.0 3.5 0.00 0.00 0.00 24 1032.5
20220927020529 93 0.0 0.0 0.00 0.00 0.00 35 1020.9
20220927020405 67 51 0.0 3.5 0.00 0.00 0.00 24 1032.5
20220927020042 94 0.0 0.0 0.00 0.00 0.00 35 1020.8
20220927015950 67 51 0.0 3.5 0.00 0.00 0.00 24 1032.5
20220927015532 94 0.0 0.0 0.00 0.00 0.00 34 1020.8
20220927015116 67 51 0.0 3.5 0.00 0.00 0.00 24 1032.5
20220927015044 95 0.0 0.0 0.00 0.00 0.00 33 1020.8
20220927014655 67 51 0.0 3.5 0.00 0.00 0.00 24 1032.5
20220927014536 95 0.0 0.0 0.00 0.00 0.00 32 1020.8
20220927014245 67 51 0.0 3.5 0.00 0.00 0.00 24 1032.5
20220927014027 95 0.0 0.0 0.00 0.00 0.00 32 1020.8
20220927013810 67 51 0.0 3.5 0.00 0.00 0.00 24 1032.5
20220927013519 96 0.0 0.0 0.00 0.00 0.00 31 1020.8
20220927013330 67 51 0.0 3.5 0.00 0.00 0.00 24 1032.5
20220927013029 96 0.0 0.0 0.00 0.00 0.00 31 1020.8
20220927012840 67 51 0.0 3.5 0.00 0.00 0.00 24 1032.5
20220927012541 97 0.0 0.0 0.00 0.00 0.00 31 1020.7
20220927012430 67 51 0.0 3.5 0.00 0.00 0.00 24 1032.5
20220927012046 97 0.0 0.9 0.00 0.00 0.00 30 1020.6
20220927012020 67 51 0.0 3.5 0.00 0.00 0.00 24 1032.5
20220927011525 67 51 0.0 3.5 0.00 0.00 0.00 24 1032.5
20220927011120 67 51 0.0 3.5 0.00 0.00 0.00 24 1032.5
20220927011038 99 248 0.0 1.7 0.00 0.00 0.00 29 1020.8
20220927010720 67 51 0.0 3.5 0.00 0.00 0.00 24 1032.5
20220927010520 99 0.0 0.0 0.00 0.00 0.00 29 1020.8
20220927010219 67 51 0.0 3.5 0.00 0.00 0.00 24 1032.5
20220927010019 100 135 0.0 0.9 0.00 0.00 0.00 28 1020.8
20220927005815 67 51 0.0 3.5 0.00 0.00 0.00 24 1032.5
20220927005517 100 113 0.0 1.7 0.00 0.00 0.00 28 1020.8
20220927005405 67 51 0.0 3.5 0.00 0.00 0.00 24 1032.5
20220927005017 100 113 0.0 0.9 0.00 0.00 0.00 29 1020.8
20220927004945 67 51 0.0 3.5 0.00 0.00 0.00 24 1032.5
20220927004533 100 113 0.9 1.7 0.00 0.00 0.00 28 1020.8
20220927004510 67 51 0.0 3.5 0.00 0.00 0.00 24 1032.5
20220927004025 100 127 0.9 1.7 0.00 0.00 0.00 29 1020.8
20220927004010 67 51 0.0 3.5 0.00 0.00 0.00 24 1032.5
20220927003516 100 270 0.0 1.7 0.00 0.00 0.00 30 1020.6
20220927003047 101 241 0.0 1.7 0.00 0.00 0.00 29 1020.6
20220927003045 67 51 0.0 3.5 0.00 0.00 0.00 24 1032.5
20220927002615 67 51 0.0 3.5 0.00 0.00 0.00 24 1032.5
20220927002521 101 113 0.0 0.9 0.00 0.00 0.00 28 1020.7
20220927002151 67 51 0.0 3.5 0.00 0.00 0.00 24 1032.5
20220927002049 101 113 0.9 1.7 0.00 0.00 0.00 28 1020.8
20220927001726 67 51 0.0 3.5 0.00 0.00 0.00 24 1032.5
20220927001522 101 108 0.9 2.6 0.00 0.00 0.00 28 1020.8
20220927001235 67 51 0.0 3.5 0.00 0.00 0.00 24 1032.5
20220927001032 101 111 1.7 2.6 0.00 0.00 0.00 28 1020.8
20220927000806 67 51 0.0 3.5 0.00 0.00 0.00 24 1032.5
20220927000320 67 51 0.0 3.5 0.00 0.00 0.00 24 1032.5
20220927000017 101 122 0.9 1.7 0.00 0.00 0.00 28 1020.8
20220926235850 67 51 0.0 3.5 0.00 0.00 0.00 24 1032.5
20220926235527 101 338 0.0 1.7 0.00 0.00 0.00 30 1020.9
20220926235435 67 51 0.0 3.5 0.00 0.00 0.00 24 1032.5
20220926234956 67 51 0.0 3.5 0.00 0.00 0.00 24 1032.5
20220926234531 102 247 0.9 2.6 0.00 0.00 0.00 27 1020.8
20220926234505 67 51 0.0 3.5 0.00 0.00 0.00 24 1032.5
20220926234105 67 51 0.0 3.5 0.00 0.00 0.00 24 1032.5
20220926234022 102 113 2.6 5.2 0.00 0.00 0.00 27 1020.8
20220926233640 67 51 0.0 3.5 0.00 0.00 0.00 24 1032.5
20220926233533 102 107 2.6 4.3 0.00 0.00 0.00 27 1020.9
20220926233150 67 51 0.0 3.5 0.00 0.00 0.00 24 1032.5
20220926233025 102 270 0.0 0.9 0.00 0.00 0.00 28 1020.9
20220926232745 67 51 0.0 3.5 0.00 0.00 0.00 24 1032.5
20220926232517 102 0.0 1.7 0.00 0.00 0.00 29 1020.9
20220926232315 67 51 0.0 3.5 0.00 0.00 0.00 24 1032.5
20220926231900 67 51 0.0 3.5 0.00 0.00 0.00 24 1032.5
20220926231600 102 116 0.9 3.5 0.00 0.00 0.00 27 1021.0
20220926231425 67 51 0.0 3.5 0.00 0.00 0.00 24 1032.5
20220926231031 102 105 0.9 2.6 0.00 0.00 0.00 27 1021.0
20220926230935 67 51 0.0 3.5 0.00 0.00 0.00 24 1032.5
20220926230602 102 118 3.5 4.3 0.00 0.00 0.00 27 1021.0
20220926230455 67 51 0.0 3.5 0.00 0.00 0.00 24 1032.5
20220926230114 102 124 1.7 3.5 0.00 0.00 0.00 28 1021.1
20220926230045 67 51 0.0 3.5 0.00 0.00 0.00 24 1032.5
20220926225625 67 51 0.0 3.5 0.00 0.00 0.00 24 1032.5
20220926225524 103 23 0.9 2.6 0.00 0.00 0.00 28 1021.1
20220926225145 67 51 0.0 3.5 0.00 0.00 0.00 24 1032.5
20220926225016 103 48 1.7 4.3 0.00 0.00 0.00 27 1021.1
20220926224705 67 51 0.0 3.5 0.00 0.00 0.00 24 1032.5
20220926224528 103 120 0.9 2.6 0.00 0.00 0.00 29 1021.1
20220926224205 67 51 0.0 3.5 0.00 0.00 0.00 24 1032.5
20220926224019 102 0.0 0.0 0.00 0.00 0.00 29 1021.1
20220926223720 67 51 0.0 3.5 0.00 0.00 0.00 24 1032.5
20220926223529 103 113 0.0 1.7 0.00 0.00 0.00 29 1021.3
20220926223245 67 51 0.0 3.5 0.00 0.00 0.00 24 1032.5
20220926223042 103 123 0.9 2.6 0.00 0.00 0.00 29 1021.3
20220926222755 67 51 0.0 3.5 0.00 0.00 0.00 24 1032.5
20220926222526 104 5 0.9 4.3 0.00 0.00 0.00 28 1021.3
20220926222305 67 51 0.0 3.5 0.00 0.00 0.00 24 1032.5
20220926222045 103 29 0.9 3.5 0.00 0.00 0.00 28 1021.3
20220926221855 67 51 0.0 3.5 0.00 0.00 0.00 24 1032.5
20220926221516 105 119 0.9 3.5 0.00 0.00 0.00 27 1021.3
20220926221420 67 51 0.0 3.5 0.00 0.00 0.00 24 1032.5
20220926221020 105 216 0.0 2.6 0.00 0.00 0.00 26 1021.5
20220926221000 67 51 0.0 3.5 0.00 0.00 0.00 24 1032.5
20220926220520 104 171 0.9 3.5 0.00 0.00 0.00 27 1021.5
20220926220510 67 51 0.0 3.5 0.00 0.00 0.00 24 1032.5
20220926220031 67 51 0.0 3.5 0.00 0.00 0.00 24 1032.5
20220926220017 103 69 0.9 2.6 0.00 0.00 0.00 28 1021.6
20220926215545 67 51 0.0 3.5 0.00 0.00 0.00 24 1032.5
20220926215515 104 213 0.9 5.2 0.00 0.00 0.00 27 1021.6
20220926215105 67 51 0.0 3.5 0.00 0.00 0.00 24 1032.5
20220926214615 67 51 0.0 3.5 0.00 0.00 0.00 24 1032.5
20220926214524 103 112 1.7 3.5 0.00 0.00 0.00 27 1021.7
20220926214150 67 51 0.0 3.5 0.00 0.00 0.00 24 1032.5
20220926214016 103 86 1.7 4.3 0.00 0.00 0.00 27 1021.7
20220926213705 67 51 0.0 3.5 0.00 0.00 0.00 24 1032.5
20220926213526 103 102 2.6 5.2 0.00 0.00 0.00 27 1021.9
20220926213240 67 51 0.0 3.5 0.00 0.00 0.00 24 1032.5
20220926213018 103 117 2.6 5.2 0.00 0.00 0.00 27 1021.9
20220926212805 67 51 0.0 3.5 0.00 0.00 0.00 24 1032.5
20220926212629 103 109 2.6 3.5 0.00 0.00 0.00 27 1022.0
20220926212320 67 51 0.0 3.5 0.00 0.00 0.00 24 1032.5
20220926212041 104 113 0.9 2.6 0.00 0.00 0.00 27 1022.1
20220926211840 67 51 0.0 3.5 0.00 0.00 0.00 24 1032.5
20220926211533 103 115 1.7 4.3 0.00 0.00 0.00 27 1022.1
20220926211355 67 51 0.0 3.5 0.00 0.00 0.00 24 1032.5
20220926211023 103 101 1.7 3.5 0.00 0.00 0.00 28 1022.2
20220926210920 67 51 0.0 3.5 0.00 0.00 0.00 24 1032.5
20220926210537 104 121 0.9 4.3 0.00 0.00 0.00 27 1022.2
20220926210425 67 51 0.0 3.5 0.00 0.00 0.00 24 1032.5
20220926210047 104 113 0.9 2.6 0.00 0.00 0.00 26 1022.4
20220926205945 67 51 0.0 3.5 0.00 0.00 0.00 24 1032.5
20220926205538 104 84 1.7 3.5 0.00 0.00 0.00 26 1022.5
20220926205526 67 51 0.0 3.5 0.00 0.00 0.00 24 1032.5
20220926205120 67 51 0.0 3.5 0.00 0.00 0.00 24 1032.5
20220926205028 104 113 0.9 2.6 0.00 0.00 0.00 27 1022.6
20220926204640 67 51 0.0 3.5 0.00 0.00 0.00 24 1032.5
20220926204522 104 112 0.9 4.3 0.00 0.00 0.00 27 1022.7
20220926204140 67 51 0.0 3.5 0.00 0.00 0.00 24 1032.5
20220926204031 104 110 0.9 2.6 0.00 0.00 0.00 26 1022.7
20220926203725 67 51 0.0 3.5 0.00 0.00 0.00 24 1032.5
20220926203523 103 108 1.7 4.3 0.00 0.00 0.00 27 1023.0
20220926203320 67 51 0.0 3.5 0.00 0.00 0.00 24 1032.5
20220926203036 103 89 1.7 4.3 0.00 0.00 0.00 26 1023.0
20220926202853 67 51 0.0 3.5 0.00 0.00 0.00 24 1032.5
20220926202526 102 89 1.7 4.3 0.00 0.00 0.00 27 1023.1
20220926202445 67 51 0.0 3.5 0.00 0.00 0.00 24 1032.5
20220926202040 67 51 0.0 3.5 0.00 0.00 0.00 24 1032.5
20220926202018 103 88 3.5 7.0 0.00 0.00 0.00 27 1023.2
20220926201549 103 105 0.9 2.6 0.00 0.00 0.00 27 1023.2
20220926201540 67 51 0.0 3.5 0.00 0.00 0.00 24 1032.5
20220926201050 67 51 0.0 3.5 0.00 0.00 0.00 24 1032.5
20220926201022 103 163 0.9 3.5 0.00 0.00 0.00 27 1023.5
20220926200610 67 51 0.0 3.5 0.00 0.00 0.00 24 1032.5
20220926200532 102 96 1.7 2.6 0.00 0.00 0.00 27 1023.5
20220926200127 67 51 0.0 3.5 0.00 0.00 0.00 24 1032.5
20220926200105 101 98 4.3 6.1 0.00 0.00 0.00 27 1023.5
20220926195705 67 51 0.0 3.5 0.00 0.00 0.00 24 1032.5
20220926195516 101 102 3.5 7.0 0.00 0.00 0.00 27 1023.6
20220926195205 67 51 0.0 3.5 0.00 0.00 0.00 24 1032.5
20220926195026 104 98 2.6 4.3 0.00 0.00 0.00 26 1023.6
20220926194756 67 51 0.0 3.5 0.00 0.00 0.00 24 1032.5
20220926194540 105 97 0.9 2.6 0.00 0.00 0.00 26 1023.8
20220926194345 67 51 0.0 3.5 0.00 0.00 0.00 24 1032.5
20220926194030 103 133 0.9 3.5 0.00 0.00 0.00 27 1023.8
20220926193905 67 51 0.0 3.5 0.00 0.00 0.00 24 1032.5
20220926193520 101 100 1.7 4.3 0.00 0.00 0.00 27 1023.9
20220926193450 67 51 0.0 3.5 0.00 0.00 0.00 24 1032.5
20220926193045 102 113 2.6 4.3 0.00 0.00 0.00 27 1023.9
20220926193040 67 51 0.0 3.5 0.00 0.00 0.00 24 1032.5
20220926192546 67 51 0.0 3.5 0.00 0.00 0.00 24 1032.5
20220926192523 102 116 2.6 4.3 0.00 0.00 0.00 27 1024.0
20220926192146 67 51 0.0 3.5 0.00 0.00 0.00 24 1032.5
20220926192035 102 107 2.6 5.2 0.00 0.00 0.00 26 1024.0
20220926191701 102 108 1.7 3.5 0.00 0.00 0.00 27 1024.1
20220926191650 67 51 0.0 3.5 0.00 0.00 0.00 24 1032.5
20220926191219 67 51 0.0 3.5 0.00 0.00 0.00 24 1032.5
20220926191018 102 119 2.6 4.3 0.00 0.00 0.00 27 1024.2
20220926190820 67 51 0.0 3.5 0.00 0.00 0.00 24 1032.5
20220926190516 102 117 0.9 2.6 0.00 0.00 0.00 27 1024.2
20220926190420 67 51 0.0 3.5 0.00 0.00 0.00 24 1032.5
20220926190041 101 112 1.7 4.3 0.00 0.00 0.00 27 1024.3
20220926185950 67 51 0.0 3.5 0.00 0.00 0.00 24 1032.5
20220926185550 102 106 1.7 4.3 0.00 0.00 0.00 27 1024.3
20220926185525 67 51 0.0 3.5 0.00 0.00 0.00 24 1032.5
20220926185055 67 51 0.0 3.5 0.00 0.00 0.00 24 1032.5
20220926185043 101 108 1.7 4.3 0.00 0.00 0.00 27 1024.3
20220926184650 67 51 0.0 3.5 0.00 0.00 0.00 24 1032.5
20220926184535 100 104 1.7 4.3 0.00 0.00 0.00 28 1024.4
20220926184153 67 51 0.0 3.5 0.00 0.00 0.00 24 1032.5
20220926184046 100 87 2.6 4.3 0.00 0.00 0.00 27 1024.4
20220926183725 67 51 0.0 3.5 0.00 0.00 0.00 24 1032.5
20220926183517 102 107 1.7 3.5 0.00 0.00 0.00 26 1024.6
20220926183315 67 51 0.0 3.5 0.00 0.00 0.00 24 1032.5
20220926183028 101 109 1.7 2.6 0.00 0.00 0.00 27 1024.6
20220926182818 67 51 0.0 3.5 0.00 0.00 0.00 24 1032.5
20220926182320 67 51 0.0 3.5 0.00 0.00 0.00 24 1032.5
20220926182030 99 109 0.9 3.5 0.00 0.00 0.00 27 1024.8
20220926181850 67 51 0.0 3.5 0.00 0.00 0.00 24 1032.5
20220926181522 99 96 1.7 3.5 0.00 0.00 0.00 28 1024.8
20220926181350 67 51 0.0 3.5 0.00 0.00 0.00 24 1032.5
20220926180856 67 51 0.0 3.5 0.00 0.00 0.00 24 1032.5
20220926180546 98 113 0.9 2.6 0.00 0.00 0.00 29 1024.9
20220926180405 67 51 0.0 3.5 0.00 0.00 0.00 24 1032.5
20220926180059 97 10 0.9 2.6 0.00 0.00 0.00 28 1025.0
20220926175945 67 51 0.0 3.5 0.00 0.00 0.00 24 1032.5
20220926175527 97 100 2.6 3.5 0.00 0.00 0.00 28 1025.1
20220926175453 67 51 0.0 3.5 0.00 0.00 0.00 24 1032.5
20220926175020 97 132 0.9 3.5 0.00 0.00 0.00 29 1025.1
20220926175005 67 51 0.0 3.5 0.00 0.00 0.00 24 1032.5
20220926174530 96 305 0.9 2.6 0.00 0.00 0.00 28 1025.1
20220926174510 67 51 0.0 3.5 0.00 0.00 0.00 24 1032.5
20220926174053 67 51 0.0 3.5 0.00 0.00 0.00 24 1032.5
20220926174042 96 94 1.7 5.2 0.00 0.00 0.00 29 1025.1
20220926173625 67 51 0.0 3.5 0.00 0.00 0.00 24 1032.5
20220926173533 96 106 2.6 5.2 0.00 0.00 0.00 29 1025.3
20220926173210 67 51 0.0 3.5 0.00 0.00 0.00 24 1032.5
20220926173105 95 96 1.7 3.5 0.00 0.00 0.00 29 1025.3
20220926172751 67 51 0.0 3.5 0.00 0.00 0.00 24 1032.5
20220926172518 95 102 2.6 3.5 0.00 0.00 0.00 29 1025.3
20220926172350 67 51 0.0 3.5 0.00 0.00 0.00 24 1032.5
20220926172027 95 118 1.7 3.5 0.00 0.00 0.00 29 1025.3
20220926171855 67 51 0.0 3.5 0.00 0.00 0.00 24 1032.5
20220926171521 95 101 1.7 3.5 0.00 0.00 0.00 29 1025.3
20220926171450 67 51 0.0 3.5 0.00 0.00 0.00 24 1032.5
20220926171051 95 107 1.7 3.5 0.00 0.00 0.00 29 1025.3
20220926171020 67 51 0.0 3.5 0.00 0.00 0.00 24 1032.5
20220926170542 95 100 1.7 4.3 0.00 0.00 0.00 29 1025.3
20220926170525 67 51 0.0 3.5 0.00 0.00 0.00 24 1032.5
20220926170052 94 92 0.9 4.3 0.00 0.00 0.00 29 1025.3
20220926170026 67 51 0.0 3.5 0.00 0.00 0.00 24 1032.5
20220926165600 67 51 0.0 3.5 0.00 0.00 0.00 24 1032.5
20220926165524 93 148 0.9 1.7 0.00 0.00 0.00 30 1025.3
20220926165158 92 293 0.9 2.6 0.00 0.00 0.00 31 1025.3
20220926165129 67 51 0.0 3.5 0.00 0.00 0.00 24 1032.5
20220926164655 67 51 0.0 3.5 0.00 0.00 0.00 24 1032.5
20220926164527 92 90 0.0 0.9 0.00 0.00 0.00 31 1025.3
20220926164225 67 51 0.0 3.5 0.00 0.00 0.00 24 1032.5
20220926164019 92 166 0.0 1.7 0.00 0.00 0.00 32 1025.3
20220926163745 67 51 0.0 3.5 0.00 0.00 0.00 24 1032.5
20220926163523 91 0.0 0.9 0.00 0.00 0.00 33 1025.3
20220926163320 67 51 0.0 3.5 0.00 0.00 0.00 24 1032.5
20220926163124 90 0.0 0.0 0.00 0.00 0.00 32 1025.3
20220926162845 67 51 0.0 3.5 0.00 0.00 0.00 24 1032.5
20220926162541 89 0.0 0.9 0.00 0.00 0.00 30 1025.3
20220926162350 67 51 0.0 3.5 0.00 0.00 0.00 24 1032.5
20220926162018 88 88 0.9 2.6 0.00 0.00 0.00 32 1025.3
20220926161940 67 51 0.0 3.5 0.00 0.00 0.00 24 1032.5
20220926161520 67 51 0.0 3.5 0.00 0.00 0.00 24 1032.5
20220926161516 87 45 0.0 1.7 0.00 0.00 0.00 34 1025.3
20220926161108 86 0.0 0.9 0.00 0.00 0.00 35 1025.3
20220926161026 67 51 0.0 3.5 0.00 0.00 0.00 24 1032.5
20220926160625 67 51 0.0 3.5 0.00 0.00 0.00 24 1032.5
20220926160518 86 0.0 0.9 0.00 0.00 0.00 34 1025.3
20220926160200 67 51 0.0 3.5 0.00 0.00 0.00 24 1032.5
20220926160129 86 0.0 1.7 0.00 0.00 0.00 35 1025.3
20220926155735 67 51 0.0 3.5 0.00 0.00 0.00 24 1032.5
20220926155541 85 34 0.0 1.7 0.00 0.00 0.00 36 1025.3
20220926155315 67 51 0.0 3.5 0.00 0.00 0.00 24 1032.5
20220926155031 84 20 0.0 2.6 0.00 0.00 0.00 37 1025.2
20220926154825 67 51 0.0 3.5 0.00 0.00 0.00 24 1032.5
20220926154523 83 0.0 0.0 0.00 0.00 0.00 40 1025.1
20220926154425 67 51 0.0 3.5 0.00 0.00 0.00 24 1032.5
20220926154016 82 68 0.0 0.9 0.00 0.00 0.00 40 1025.1
20220926153930 67 51 0.0 3.5 0.00 0.00 0.00 24 1032.5
20220926153526 82 0.0 0.9 0.00 0.00 0.00 40 1025.1
20220926153515 67 51 0.0 3.5 0.00 0.00 0.00 24 1032.5
20220926153058 81 0.0 0.9 0.00 0.00 0.00 41 1025.1
20220926153035 67 51 0.0 3.5 0.00 0.00 0.00 24 1032.5
20220926152615 67 51 0.0 3.5 0.00 0.00 0.00 24 1032.5
20220926152529 80 0.0 0.9 0.00 0.00 0.00 42 1025.0
20220926152146 67 51 0.0 3.5 0.00 0.00 0.00 24 1032.5
20220926152020 79 45 0.0 0.9 0.00 0.00 0.00 44 1024.9
20220926151725 67 51 0.0 3.5 0.00 0.00 0.00 24 1032.5
20220926151530 79 0.0 0.0 0.00 0.00 0.00 43 1024.9
20220926151252 67 51 0.0 3.5 0.00 0.00 0.00 24 1032.5
20220926151024 78 0.0 0.9 0.00 0.00 0.00 44 1024.9
20220926150832 67 51 0.0 3.5 0.00 0.00 0.00 24 1032.5
20220926150534 78 68 0.0 0.9 0.00 0.00 0.00 45 1024.9
20220926150410 67 51 0.0 3.5 0.00 0.00 0.00 24 1032.5
20220926150026 77 0.0 0.9 0.00 0.00 0.00 45 1024.9
20220926145930 67 51 0.0 3.5 0.00 0.00 0.00 24 1032.5
20220926145538 77 0.0 0.0 0.00 0.00 0.00 45 1024.8
20220926145525 67 51 0.0 3.5 0.00 0.00 0.00 24 1032.5
20220926145115 67 51 0.0 3.5 0.00 0.00 0.00 24 1032.5
20220926145027 76 0.0 0.0 0.00 0.00 0.00 45 1024.8
20220926144645 67 51 0.0 3.5 0.00 0.00 0.00 24 1032.5
20220926144519 76 0.0 0.0 0.00 0.00 0.00 46 1024.8
20220926144240 67 51 0.0 3.5 0.00 0.00 0.00 24 1032.5
20220926144030 75 0.0 0.0 0.00 0.00 0.00 47 1024.8
20220926143755 67 51 0.0 3.5 0.00 0.00 0.00 24 1032.5
20220926143522 74 0.0 0.0 0.00 0.00 0.00 48 1024.6
20220926143340 67 51 0.0 3.5 0.00 0.00 0.00 24 1032.5
20220926143032 74 0.0 0.0 0.00 0.00 0.00 48 1024.6
20220926142900 67 51 0.0 3.5 0.00 0.00 0.00 24 1032.5
20220926142524 74 0.0 0.0 0.00 0.00 0.00 48 1024.6
20220926142455 67 51 0.0 3.5 0.00 0.00 0.00 24 1032.5
20220926142055 67 51 0.0 3.5 0.00 0.00 0.00 24 1032.5
20220926142016 73 0.0 0.0 0.00 0.00 0.00 48 1024.5
20220926141640 67 51 0.0 3.5 0.00 0.00 0.00 24 1032.5
20220926141547 73 0.0 0.0 0.00 0.00 0.00 49 1024.5
20220926141217 67 51 0.0 3.5 0.00 0.00 0.00 24 1032.5
20220926141019 73 0.0 0.0 0.00 0.00 0.00 50 1024.5
20220926140755 67 51 0.0 3.5 0.00 0.00 0.00 24 1032.5
20220926140549 73 0.0 0.0 0.00 0.00 0.00 49 1024.5
20220926140255 67 51 0.0 3.5 0.00 0.00 0.00 24 1032.5
20220926140122 73 0.0 0.0 0.00 0.00 0.00 47 1024.4
20220926135805 67 51 0.0 3.5 0.00 0.00 0.00 24 1032.5
20220926135547 73 0.0 0.0 0.00 0.00 0.00 47 1024.4
20220926135325 67 51 0.0 3.5 0.00 0.00 0.00 24 1032.5
20220926135024 73 0.0 0.0 0.00 0.00 0.00 46 1024.4
20220926134920 67 51 0.0 3.5 0.00 0.00 0.00 24 1032.5
20220926134516 73 0.0 0.0 0.00 0.00 0.00 47 1024.3
20220926134455 67 51 0.0 3.5 0.00 0.00 0.00 24 1032.5
20220926134020 72 0.0 0.0 0.00 0.00 0.00 48 1024.3
20220926134006 67 51 0.0 3.5 0.00 0.00 0.00 24 1032.5
20220926133526 67 51 0.0 3.5 0.00 0.00 0.00 24 1032.5
20220926133518 72 0.0 0.0 0.00 0.00 0.00 48 1024.2
20220926133058 73 0.0 0.0 0.00 0.00 0.00 48 1024.2
20220926133040 67 51 0.0 3.5 0.00 0.00 0.00 24 1032.5
20220926132605 67 51 0.0 3.5 0.00 0.00 0.00 24 1032.5
20220926132521 73 0.0 0.0 0.00 0.00 0.00 48 1024.1
20220926132145 67 51 0.0 3.5 0.00 0.00 0.00 24 1032.5
20220926132051 73 0.0 0.0 0.00 0.00 0.00 47 1024.1
20220926131734 67 51 0.0 3.5 0.00 0.00 0.00 24 1032.5
20220926131525 73 0.0 0.0 0.00 0.00 0.00 47 1024.0
20220926131325 67 51 0.0 3.5 0.00 0.00 0.00 24 1032.5
20220926131016 72 0.0 0.0 0.00 0.00 0.00 47 1023.9
20220926130856 67 51 0.0 3.5 0.00 0.00 0.00 24 1032.5
20220926130525 72 0.0 0.0 0.00 0.00 0.00 50 1023.9
20220926130415 67 51 0.0 3.5 0.00 0.00 0.00 24 1032.5
20220926130038 72 0.0 0.0 0.00 0.00 0.00 50 1024.0
20220926130000 67 51 0.0 3.5 0.00 0.00 0.00 24 1032.5
20220926125528 72 0.0 0.0 0.00 0.00 0.00 52 1024.0
20220926125505 67 51 0.0 3.5 0.00 0.00 0.00 24 1032.5
20220926125020 72 0.0 0.0 0.00 0.00 0.00 53 1024.0
20220926125010 67 51 0.0 3.5 0.00 0.00 0.00 24 1032.5
20220926124550 67 51 0.0 3.5 0.00 0.00 0.00 24 1032.5
20220926124532 71 0.0 0.0 0.00 0.00 0.00 53 1023.8
20220926124130 67 51 0.0 3.5 0.00 0.00 0.00 24 1032.5
20220926124023 71 270 0.0 0.9 0.00 0.00 0.00 51 1023.8
20220926123655 67 51 0.0 3.5 0.00 0.00 0.00 24 1032.5
20220926123537 71 0.0 0.0 0.00 0.00 0.00 51 1023.7
20220926123245 67 51 0.0 3.5 0.00 0.00 0.00 24 1032.5
20220926123025 71 0.0 0.0 0.00 0.00 0.00 51 1023.7
20220926122835 67 51 0.0 3.5 0.00 0.00 0.00 24 1032.5
20220926122518 71 0.0 0.0 0.00 0.00 0.00 52 1023.6
20220926122415 67 51 0.0 3.5 0.00 0.00 0.00 24 1032.5
20220926122048 71 0.0 0.0 0.00 0.00 0.00 51 1023.5
20220926121950 67 51 0.0 3.5 0.00 0.00 0.00 24 1032.5
20220926121530 67 51 0.0 3.5 0.00 0.00 0.00 24 1032.5
20220926121520 72 0.0 0.0 0.00 0.00 0.00 47 1023.5
20220926121125 67 51 0.0 3.5 0.00 0.00 0.00 24 1032.5
20220926121051 73 0.0 0.0 0.00 0.00 0.00 47 1023.5
20220926120635 67 51 0.0 3.5 0.00 0.00 0.00 24 1032.5
20220926120544 72 0.0 0.0 0.00 0.00 0.00 48 1023.5
20220926120140 67 51 0.0 3.5 0.00 0.00 0.00 24 1032.5
20220926120053 72 0.0 0.0 0.00 0.00 0.00 50 1023.5
20220926115655 67 51 0.0 3.5 0.00 0.00 0.00 24 1032.5
20220926115525 72 0.0 0.0 0.00 0.00 0.00 51 1023.5
20220926115155 67 51 0.0 3.5 0.00 0.00 0.00 24 1032.5
20220926115018 72 0.0 0.0 0.00 0.00 0.00 51 1023.4
20220926114750 67 51 0.0 3.5 0.00 0.00 0.00 24 1032.5
20220926114529 72 0.0 0.0 0.00 0.00 0.00 52 1023.2
20220926114345 67 51 0.0 3.5 0.00 0.00 0.00 24 1032.5
20220926114019 72 0.0 0.0 0.00 0.00 0.00 52 1023.2
20220926113915 67 51 0.0 3.5 0.00 0.00 0.00 24 1032.5
20220926113529 72 0.0 0.0 0.00 0.00 0.00 52 1023.2
20220926113420 67 51 0.0 3.5 0.00 0.00 0.00 24 1032.5
20220926113022 72 0.0 0.0 0.00 0.00 0.00 51 1023.2
20220926112935 67 51 0.0 3.5 0.00 0.00 0.00 24 1032.5
20220926112554 73 0.0 0.0 0.00 0.00 0.00 51 1023.2
20220926112525 67 51 0.0 3.5 0.00 0.00 0.00 24 1032.5
20220926112035 67 51 0.0 3.5 0.00 0.00 0.00 24 1032.5
20220926112024 72 0.0 0.0 0.00 0.00 0.00 55 1023.2
20220926111605 67 51 0.0 3.5 0.00 0.00 0.00 24 1032.5
20220926111538 71 0.0 0.0 0.00 0.00 0.00 56 1023.2
20220926111140 67 51 0.0 3.5 0.00 0.00 0.00 24 1032.5
20220926111027 71 270 0.0 0.9 0.00 0.00 0.00 56 1023.2
20220926110655 67 51 0.0 3.5 0.00 0.00 0.00 24 1032.5
20220926110519 70 0.0 0.0 0.00 0.00 0.00 57 1023.2
20220926110211 67 51 0.0 3.5 0.00 0.00 0.00 24 1032.5
20220926110103 71 0.0 0.0 0.00 0.00 0.00 57 1023.2
20220926105720 67 51 0.0 3.5 0.00 0.00 0.00 24 1032.5
20220926105543 71 0.0 0.0 0.00 0.00 0.00 57 1023.2
20220926105220 67 51 0.0 3.5 0.00 0.00 0.00 24 1032.5
20220926105020 71 0.0 0.0 0.00 0.00 0.00 56 1023.2
20220926104752 67 51 0.0 3.5 0.00 0.00 0.00 24 1032.5
20220926104519 72 0.0 0.0 0.00 0.00 0.00 57 1023.2
20220926104310 67 51 0.0 3.5 0.00 0.00 0.00 24 1032.5
20220926104017 70 0.0 0.0 0.00 0.00 0.00 58 1023.2
20220926103825 67 51 0.0 3.5 0.00 0.00 0.00 24 1032.5
20220926103555 70 0.0 0.0 0.00 0.00 0.00 59 1023.2
20220926103345 67 51 0.0 3.5 0.00 0.00 0.00 24 1032.5
20220926103020 70 0.0 0.0 0.00 0.00 0.00 60 1023.2
20220926102905 67 51 0.0 3.5 0.00 0.00 0.00 24 1032.5
20220926102530 70 0.0 0.0 0.00 0.00 0.00 59 1023.2
20220926102450 67 51 0.0 3.5 0.00 0.00 0.00 24 1032.5
20220926102144 71 0.0 0.0 0.00 0.00 0.00 60 1023.2
20220926102010 67 51 0.0 3.5 0.00 0.00 0.00 24 1032.5
20220926101653 71 0.0 0.0 0.00 0.00 0.00 59 1023.2
20220926101545 67 51 0.0 3.5 0.00 0.00 0.00 24 1032.5
20220926101125 71 0.0 0.0 0.00 0.00 0.00 59 1023.2
20220926101050 67 51 0.0 3.5 0.00 0.00 0.00 24 1032.5
20220926100555 67 51 0.0 3.5 0.00 0.00 0.00 24 1032.5
20220926100537 71 0.0 0.0 0.00 0.00 0.00 58 1023.2
20220926100105 67 51 0.0 3.5 0.00 0.00 0.00 24 1032.5
20220926095650 67 51 0.0 3.5 0.00 0.00 0.00 24 1032.5
20220926095539 72 0.0 0.0 0.00 0.00 0.00 55 1023.0
20220926095150 67 51 0.0 3.5 0.00 0.00 0.00 24 1032.5
20220926095029 72 0.0 0.0 0.00 0.00 0.00 54 1023.0
20220926094700 67 51 0.0 3.5 0.00 0.00 0.00 24 1032.5
20220926094522 73 0.0 0.0 0.00 0.00 0.00 53 1023.0
20220926094250 67 51 0.0 3.5 0.00 0.00 0.00 24 1032.5
20220926094052 73 0.0 0.0 0.00 0.00 0.00 55 1023.0
20220926093850 67 51 0.0 3.5 0.00 0.00 0.00 24 1032.5
20220926093605 73 0.0 0.0 0.00 0.00 0.00 54 1023.0
20220926093420 67 51 0.0 3.5 0.00 0.00 0.00 24 1032.5
20220926093016 74 0.0 0.0 0.00 0.00 0.00 52 1023.0
20220926092920 67 51 0.0 3.5 0.00 0.00 0.00 24 1032.5
20220926092546 74 0.0 0.0 0.00 0.00 0.00 51 1023.0
20220926092420 67 51 0.0 3.5 0.00 0.00 0.00 24 1032.5
20220926092020 74 0.0 0.0 0.00 0.00 0.00 51 1023.0
20220926092005 67 51 0.0 3.5 0.00 0.00 0.00 24 1032.5
20220926091535 67 51 0.0 3.5 0.00 0.00 0.00 24 1032.5
20220926091529 74 0.0 0.0 0.00 0.00 0.00 51 1023.0
20220926091125 67 51 0.0 3.5 0.00 0.00 0.00 24 1032.5
20220926091023 73 0.0 0.0 0.00 0.00 0.00 52 1023.2
20220926090710 67 51 0.0 3.5 0.00 0.00 0.00 24 1032.5
20220926090531 72 0.0 0.0 0.00 0.00 0.00 53 1023.2
20220926090240 67 51 0.0 3.5 0.00 0.00 0.00 24 1032.5
20220926090025 73 0.0 0.0 0.00 0.00 0.00 54 1023.2
20220926085810 67 51 0.0 3.5 0.00 0.00 0.00 24 1032.5
20220926085516 73 0.0 0.0 0.00 0.00 0.00 53 1023.2
20220926085405 67 51 0.0 3.5 0.00 0.00 0.00 24 1032.5
20220926085026 73 0.0 0.0 0.00 0.00 0.00 53 1023.1
20220926084930 67 51 0.0 3.5 0.00 0.00 0.00 24 1032.5
20220926084619 73 0.0 0.0 0.00 0.00 0.00 53 1023.0
20220926084525 67 51 0.0 3.5 0.00 0.00 0.00 24 1032.5
20220926084118 67 51 0.0 3.5 0.00 0.00 0.00 24 1032.5
20220926084028 73 0.0 0.0 0.00 0.00 0.00 53 1023.0
20220926083646 67 51 0.0 3.5 0.00 0.00 0.00 24 1032.5
20220926083541 73 0.0 0.0 0.00 0.00 0.00 51 1023.0
20220926083205 67 51 0.0 3.5 0.00 0.00 0.00 24 1032.5
20220926083031 73 0.0 0.0 0.00 0.00 0.00 51 1023.0
20220926082710 67 51 0.0 3.5 0.00 0.00 0.00 24 1032.5
20220926082523 74 0.0 0.0 0.00 0.00 0.00 50 1023.0
20220926082225 67 51 0.0 3.5 0.00 0.00 0.00 24 1032.5
20220926082015 73 0.0 0.0 0.00 0.00 0.00 53 1023.0
20220926081730 67 51 0.0 3.5 0.00 0.00 0.00 24 1032.5
20220926081526 73 0.0 0.0 0.00 0.00 0.00 55 1023.1
20220926081330 67 51 0.0 3.5 0.00 0.00 0.00 24 1032.5
20220926081038 73 0.0 0.0 0.00 0.00 0.00 55 1023.2
20220926080855 67 51 0.0 3.5 0.00 0.00 0.00 24 1032.5
20220926080522 73 0.0 0.0 0.00 0.00 0.00 54 1023.2
20220926080405 67 51 0.0 3.5 0.00 0.00 0.00 24 1032.5
20220926080041 74 0.0 0.0 0.00 0.00 0.00 54 1023.2
20220926075925 67 51 0.0 3.5 0.00 0.00 0.00 24 1032.5
20220926075519 74 0.0 0.0 0.00 0.00 0.00 54 1023.2
20220926075500 67 51 0.0 3.5 0.00 0.00 0.00 24 1032.5
20220926075035 67 51 0.0 3.5 0.00 0.00 0.00 24 1032.5
20220926075019 74 0.0 0.0 0.00 0.00 0.00 53 1023.2
20220926074555 67 51 0.0 3.5 0.00 0.00 0.00 24 1032.5
20220926074516 75 0.0 0.0 0.00 0.00 0.00 53 1023.2
20220926074105 67 51 0.0 3.5 0.00 0.00 0.00 24 1032.5
20220926074026 75 0.0 0.0 0.00 0.00 0.00 52 1023.2
20220926073613 67 51 0.0 3.5 0.00 0.00 0.00 24 1032.5
20220926073518 75 0.0 0.0 0.00 0.00 0.00 51 1023.2
20220926073150 67 51 0.0 3.5 0.00 0.00 0.00 24 1032.5
20220926073108 75 0.0 0.0 0.00 0.00 0.00 51 1023.2
20220926072740 67 51 0.0 3.5 0.00 0.00 0.00 24 1032.5
20220926072542 75 0.0 0.0 0.00 0.00 0.00 50 1023.2
20220926072240 67 51 0.0 3.5 0.00 0.00 0.00 24 1032.5
20220926072031 75 0.0 0.0 0.00 0.00 0.00 50 1023.2
20220926071800 67 51 0.0 3.5 0.00 0.00 0.00 24 1032.5
20220926071523 76 0.0 0.0 0.00 0.00 0.00 49 1023.2
20220926071400 67 51 0.0 3.5 0.00 0.00 0.00 24 1032.5
20220926071015 76 0.0 0.0 0.00 0.00 0.00 48 1023.2
20220926070925 67 51 0.0 3.5 0.00 0.00 0.00 24 1032.5
20220926070547 77 0.0 0.0 0.00 0.00 0.00 48 1023.2
20220926070450 67 51 0.0 3.5 0.00 0.00 0.00 24 1032.5
20220926070019 77 0.0 0.0 0.00 0.00 0.00 48 1023.2
20220926065950 67 51 0.0 3.5 0.00 0.00 0.00 24 1032.5
20220926065548 78 0.0 0.0 0.00 0.00 0.00 46 1023.2
20220926065540 67 51 0.0 3.5 0.00 0.00 0.00 24 1032.5
20220926065045 67 51 0.0 3.5 0.00 0.00 0.00 24 1032.5
20220926065022 77 0.0 0.0 0.00 0.00 0.00 46 1023.2
20220926064611 78 0.0 0.0 0.00 0.00 0.00 45 1023.2
20220926064205 67 51 0.0 3.5 0.00 0.00 0.00 24 1032.5
20220926064125 78 0.0 0.0 0.00 0.00 0.00 44 1023.2
20220926063725 67 51 0.0 3.5 0.00 0.00 0.00 24 1032.5
20220926063516 78 0.0 0.0 0.00 0.00 0.00 45 1023.3
20220926063250 67 51 0.0 3.5 0.00 0.00 0.00 24 1032.5
20220926063027 78 0.0 0.0 0.00 0.00 0.00 46 1023.4
20220926062820 67 51 0.0 3.5 0.00 0.00 0.00 24 1032.5
20220926062518 78 0.0 0.0 0.00 0.00 0.00 46 1023.4
20220926062410 67 51 0.0 3.5 0.00 0.00 0.00 24 1032.5
20220926062029 78 0.0 0.0 0.00 0.00 0.00 47 1023.5
20220926061915 67 51 0.0 3.5 0.00 0.00 0.00 24 1032.5
20220926061541 78 0.0 0.0 0.00 0.00 0.00 46 1023.5
20220926061505 67 51 0.0 3.5 0.00 0.00 0.00 24 1032.5
20220926061031 78 0.0 0.0 0.00 0.00 0.00 46 1023.4
20220926061025 67 51 0.0 3.5 0.00 0.00 0.00 24 1032.5
20220926060550 67 51 0.0 3.5 0.00 0.00 0.00 24 1032.5
20220926060523 79 0.0 0.0 0.00 0.00 0.00 44 1023.4
20220926060100 67 51 0.0 3.5 0.00 0.00 0.00 24 1032.5
20220926060056 79 0.0 0.0 0.00 0.00 0.00 44 1023.3
20220926055610 67 51 0.0 3.5 0.00 0.00 0.00 24 1032.5
20220926055526 79 0.0 0.0 0.00 0.00 0.00 44 1023.2
20220926055156 67 51 0.0 3.5 0.00 0.00 0.00 24 1032.5
20220926055019 79 0.0 0.0 0.00 0.00 0.00 44 1023.2
20220926054700 67 51 0.0 3.5 0.00 0.00 0.00 24 1032.5
20220926054528 80 0.0 0.0 0.00 0.00 0.00 42 1023.2
20220926054237 67 51 0.0 3.5 0.00 0.00 0.00 24 1032.5
20220926054101 80 0.0 0.0 0.00 0.00 0.00 42 1023.2
20220926053800 67 51 0.0 3.5 0.00 0.00 0.00 24 1032.5
20220926053531 80 0.0 0.0 0.00 0.00 0.00 42 1023.2
20220926053350 67 51 0.0 3.5 0.00 0.00 0.00 24 1032.5
20220926053045 80 0.0 0.0 0.00 0.00 0.00 42 1023.2
20220926052903 67 51 0.0 3.5 0.00 0.00 0.00 24 1032.5
20220926052536 81 0.0 0.0 0.00 0.00 0.00 42 1023.1
20220926052410 67 51 0.0 3.5 0.00 0.00 0.00 24 1032.5
20220926052027 81 0.0 0.0 0.00 0.00 0.00 41 1023.0
20220926052011 67 51 0.0 3.5 0.00 0.00 0.00 24 1032.5
20220926051605 67 51 0.0 3.5 0.00 0.00 0.00 24 1032.5
20220926051539 82 0.0 0.0 0.00 0.00 0.00 41 1023.0
20220926051120 67 51 0.0 3.5 0.00 0.00 0.00 24 1032.5
20220926051022 82 0.0 0.0 0.00 0.00 0.00 41 1023.0
20220926050625 67 51 0.0 3.5 0.00 0.00 0.00 24 1032.5
20220926050521 82 0.0 0.0 0.00 0.00 0.00 41 1023.0
20220926050144 67 51 0.0 3.5 0.00 0.00 0.00 24 1032.5
20220926050019 82 0.0 0.0 0.00 0.00 0.00 40 1023.0
20220926045711 67 51 0.0 3.5 0.00 0.00 0.00 24 1032.5
20220926045558 83 0.0 0.0 0.00 0.00 0.00 40 1023.0
20220926045305 67 51 0.0 3.5 0.00 0.00 0.00 24 1032.5
20220926045137 83 0.0 0.0 0.00 0.00 0.00 40 1022.9
20220926044820 67 51 0.0 3.5 0.00 0.00 0.00 24 1032.5
20220926044525 83 0.0 0.0 0.00 0.00 0.00 39 1022.8
20220926044345 67 51 0.0 3.5 0.00 0.00 0.00 24 1032.5
20220926044138 84 0.0 0.0 0.00 0.00 0.00 39 1022.8
20220926043911 67 51 0.0 3.5 0.00 0.00 0.00 24 1032.5
20220926043530 84 0.0 0.0 0.00 0.00 0.00 38 1022.7
20220926043450 67 51 0.0 3.5 0.00 0.00 0.00 24 1032.5
20220926043021 84 0.0 0.0 0.00 0.00 0.00 39 1022.7
20220926043011 67 51 0.0 3.5 0.00 0.00 0.00 24 1032.5
20220926042612 84 0.0 0.0 0.00 0.00 0.00 38 1022.7
20220926042515 67 51 0.0 3.5 0.00 0.00 0.00 24 1032.5
20220926042044 85 0.0 0.0 0.00 0.00 0.00 35 1022.7
20220926042015 67 51 0.0 3.5 0.00 0.00 0.00 24 1032.5
20220926041520 67 51 0.0 3.5 0.00 0.00 0.00 24 1032.5
20220926041515 85 0.0 0.0 0.00 0.00 0.00 35 1022.7
20220926041025 67 51 0.0 3.5 0.00 0.00 0.00 24 1032.5
20220926040530 67 51 0.0 3.5 0.00 0.00 0.00 24 1032.5
20220926040518 85 0.0 0.0 0.00 0.00 0.00 35 1022.8
20220926040050 67 51 0.0 3.5 0.00 0.00 0.00 24 1032.5
20220926040028 84 0.0 0.0 0.00 0.00 0.00 36 1022.8
20220926035615 67 51 0.0 3.5 0.00 0.00 0.00 24 1032.5
20220926035520 85 0.0 0.0 0.00 0.00 0.00 36 1022.7
20220926035211 67 51 0.0 3.5 0.00 0.00 0.00 24 1032.5
20220926035030 84 0.0 0.0 0.00 0.00 0.00 37 1022.7
20220926034740 67 51 0.0 3.5 0.00 0.00 0.00 24 1032.5
20220926034523 84 0.0 0.0 0.00 0.00 0.00 37 1022.7
20220926034335 67 51 0.0 3.5 0.00 0.00 0.00 24 1032.5
20220926034033 84 0.0 0.0 0.00 0.00 0.00 37 1022.7
20220926033935 67 51 0.0 3.5 0.00 0.00 0.00 24 1032.5
20220926033525 85 0.0 0.0 0.00 0.00 0.00 37 1022.6
20220926033443 67 51 0.0 3.5 0.00 0.00 0.00 24 1032.5
20220926033202 86 0.0 0.0 0.00 0.00 0.00 36 1022.6
20220926033045 67 51 0.0 3.5 0.00 0.00 0.00 24 1032.5
20220926032645 67 51 0.0 3.5 0.00 0.00 0.00 24 1032.5
20220926032527 86 0.0 0.0 0.00 0.00 0.00 37 1022.6
20220926032231 67 51 0.0 3.5 0.00 0.00 0.00 24 1032.5
20220926032040 87 0.0 0.0 0.00 0.00 0.00 37 1022.5
20220926031810 67 51 0.0 3.5 0.00 0.00 0.00 24 1032.5
20220926031530 87 0.0 0.0 0.00 0.00 0.00 36 1022.5
20220926031330 67 51 0.0 3.5 0.00 0.00 0.00 24 1032.5
20220926031023 88 0.0 0.0 0.00 0.00 0.00 34 1022.5
20220926030915 67 51 0.0 3.5 0.00 0.00 0.00 24 1032.5
20220926030534 89 0.0 0.0 0.00 0.00 0.00 33 1022.5
20220926030455 67 51 0.0 3.5 0.00 0.00 0.00 24 1032.5
20220926030025 67 51 0.0 3.5 0.00 0.00 0.00 24 1032.5